Location: Observatory Park - Geauga Park District
(41.5832°N, 81.0716°W)
Time: 06:27:51
(UTC-04:00)

Tiangong - Pass Details

Date: 27 September 2021
Orbit: 382 x 385 km, 41.5° (Epoch: 17 October)

Event Time Altitude Azimuth Distance (km) Brightness Sun altitude
Exits shadow 06:41:21 - 244° (WSW) 1,489 3.4 -7.5°
Reaches altitude 10° 06:41:35 10° 243° (WSW) 1,390 3.3 -7.5°
Maximum altitude 06:44:40 56° 164° (SSE) 456 1.5 -6.9°
Drops below altitude 10° 06:47:45 10° 85° (E) 1,387 5.7 -6.3°
Sets 06:49:51 0° 81° (E) 2,246 7.6 -5.9°
